Radiation Dose at Monitoring Post of Fukushima Daini Nuclear Power Station
Date,Time,MP-1(microSv/h),MP-2(microSv/h),MP-3(microSv/h),MP-4(microSv/h),MP-5(microSv/h),MP-6(microSv/h),MP-7(microSv/h),Wind Direction,Wind Velocity(m/s),Rain
2018/09/22,00:00,0.297,0.187,0.299,0.288,0.281,0.150,0.096,northeast,5.2,Yes
2018/09/22,00:10,0.296,0.188,0.297,0.288,0.280,0.150,0.096,north-northeast,5.9,Yes
2018/09/22,00:20,0.295,0.189,0.299,0.289,0.279,0.150,0.096,north,6.5,Yes
2018/09/22,00:30,0.297,0.188,0.298,0.286,0.282,0.151,0.096,north,5.9,Yes
2018/09/22,00:40,0.293,0.190,0.297,0.289,0.279,0.152,0.097,north,5.5,Yes
2018/09/22,00:50,0.299,0.188,0.299,0.288,0.282,0.151,0.097,north,6.2,Yes
2018/09/22,01:00,0.298,0.189,0.296,0.288,0.279,0.152,0.095,north,5.7,Yes
2018/09/22,01:10,0.298,0.189,0.299,0.290,0.281,0.152,0.097,north,7.8,Yes
2018/09/22,01:20,0.298,0.189,0.298,0.287,0.282,0.152,0.098,north,7.9,Yes
2018/09/22,01:30,0.297,0.189,0.299,0.290,0.280,0.152,0.097,north,7.8,Yes
2018/09/22,01:40,0.299,0.189,0.298,0.287,0.282,0.151,0.098,north,7.7,Yes
2018/09/22,01:50,0.296,0.188,0.296,0.288,0.278,0.151,0.097,north-northeast,8.2,Yes
2018/09/22,02:00,0.298,0.187,0.298,0.289,0.280,0.152,0.096,-,CALM,Yes
2018/09/22,02:10,0.297,0.188,0.295,0.287,0.280,0.149,0.096,-,CALM,Yes
2018/09/22,02:20,0.296,0.187,0.298,0.287,0.279,0.150,0.096,-,CALM,Yes
2018/09/22,02:30,0.297,0.188,0.295,0.286,0.282,0.150,0.096,north-northwest,8.5,Yes
2018/09/22,02:40,0.296,0.187,0.295,0.288,0.277,0.149,0.097,north,10.3,Yes
2018/09/22,02:50,0.297,0.187,0.295,0.284,0.280,0.150,0.095,-,CALM,Yes
2018/09/22,03:00,0.295,0.185,0.294,0.287,0.277,0.149,0.096,north-northwest,10.1,Yes
2018/09/22,03:10,0.296,0.188,0.295,0.287,0.278,0.149,0.095,north-northwest,9.2,Yes
2018/09/22,03:20,0.294,0.185,0.294,0.284,0.278,0.148,0.094,north-northwest,9.2,Yes
2018/09/22,03:30,0.297,0.185,0.294,0.285,0.277,0.147,0.094,north-northwest,9.6,Yes
2018/09/22,03:40,0.295,0.185,0.293,0.284,0.278,0.147,0.094,north-northwest,8.8,Yes
2018/09/22,03:50,0.295,0.186,0.295,0.286,0.277,0.147,0.093,north-northwest,9.6,Yes
2018/09/22,04:00,0.294,0.184,0.294,0.283,0.278,0.147,0.093,north-northwest,9.8,Yes
2018/09/22,04:10,0.293,0.185,0.296,0.285,0.275,0.147,0.093,north-northwest,9.5,Yes
2018/09/22,04:20,0.295,0.184,0.293,0.284,0.277,0.147,0.092,north-northwest,10.0,Yes
2018/09/22,04:30,0.295,0.185,0.295,0.285,0.275,0.146,0.093,north-northwest,9.2,No
2018/09/22,04:40,0.297,0.183,0.294,0.284,0.277,0.146,0.092,north-northwest,10.1,No
2018/09/22,04:50,0.296,0.184,0.296,0.285,0.276,0.147,0.092,north-northwest,10.0,No
2018/09/22,05:00,0.296,0.183,0.292,0.284,0.276,0.145,0.091,north-northwest,10.9,No
2018/09/22,05:10,0.294,0.185,0.296,0.286,0.276,0.145,0.091,north-northwest,8.8,No
2018/09/22,05:20,0.296,0.183,0.294,0.285,0.276,0.144,0.090,north-northwest,8.6,No
2018/09/22,05:30,0.294,0.183,0.296,0.284,0.276,0.145,0.091,north-northwest,9.8,No
2018/09/22,05:40,0.294,0.183,0.294,0.286,0.273,0.145,0.090,north-northwest,9.0,No
2018/09/22,05:50,0.295,0.182,0.295,0.283,0.278,0.145,0.091,north-northwest,9.0,Yes
2018/09/22,06:00,0.294,0.183,0.295,0.286,0.274,0.146,0.091,north-northwest,9.2,No
2018/09/22,06:10,0.298,0.184,0.295,0.285,0.276,0.145,0.090,north-northwest,9.6,No
2018/09/22,06:20,0.293,0.183,0.296,0.284,0.274,0.146,0.091,north-northwest,8.3,No
2018/09/22,06:30,0.297,0.182,0.295,0.285,0.275,0.145,0.090,north-northwest,9.0,No
2018/09/22,06:40,0.296,0.184,0.297,0.284,0.278,0.145,0.090,north-northwest,7.9,No
2018/09/22,06:50,0.294,0.182,0.296,0.286,0.274,0.145,0.090,north-northwest,8.1,Yes
2018/09/22,07:00,0.296,0.183,0.294,0.285,0.277,0.145,0.090,north-northwest,7.6,Yes
2018/09/22,07:10,0.294,0.183,0.295,0.286,0.275,0.145,0.091,north-northwest,6.9,Yes
2018/09/22,07:20,0.297,0.182,0.294,0.286,0.274,0.145,0.090,north-northwest,7.1,No
2018/09/22,07:30,0.297,0.184,0.299,0.283,0.278,0.146,0.091,north-northwest,5.9,No
2018/09/22,07:40,0.295,0.184,0.295,0.289,0.275,0.146,0.091,north-northwest,5.8,Yes
2018/09/22,07:50,0.298,0.183,0.297,0.286,0.276,0.147,0.090,northwest,3.8,Yes
2018/09/22,08:00,0.297,0.184,0.297,0.284,0.277,0.146,0.090,north-northwest,2.6,No
2018/09/22,08:10,0.295,0.184,0.295,0.288,0.274,0.146,0.091,-,CALM,Yes
2018/09/22,08:20,0.298,0.184,0.297,0.286,0.276,0.146,0.091,-,CALM,Yes
2018/09/22,08:30,0.297,0.186,0.297,0.288,0.279,0.146,0.091,-,CALM,Yes
2018/09/22,08:40,0.299,0.187,0.298,0.289,0.278,0.148,0.093,north-northwest,5.2,Yes
2018/09/22,08:50,0.305,0.190,0.302,0.290,0.282,0.152,0.095,north-northwest,4.8,Yes
2018/09/22,09:00,0.302,0.189,0.300,0.293,0.283,0.150,0.096,north-northwest,4.3,Yes
2018/09/22,09:10,0.302,0.188,0.300,0.290,0.278,0.151,0.095,northwest,3.8,No
2018/09/22,09:20,0.300,0.189,0.300,0.290,0.281,0.150,0.094,northwest,3.7,No
2018/09/22,09:30,0.298,0.187,0.297,0.289,0.280,0.149,0.094,northwest,3.3,No
2018/09/22,09:40,0.300,0.186,0.300,0.286,0.277,0.148,0.093,northwest,1.7,No
2018/09/22,09:50,0.298,0.187,0.298,0.288,0.277,0.148,0.092,northwest,2.4,No
2018/09/22,10:00,0.296,0.186,0.295,0.288,0.279,0.147,0.092,northwest,1.9,No
2018/09/22,10:10,0.299,0.185,0.299,0.286,0.276,0.147,0.092,north-northwest,1.1,No
2018/09/22,10:20,0.300,0.184,0.299,0.285,0.275,0.147,0.091,-,CALM,No
2018/09/22,10:30,0.296,0.184,0.296,0.290,0.274,0.148,0.092,southeast,1.0,No
2018/09/22,10:40,0.295,0.185,0.296,0.288,0.272,0.147,0.090,south-southeast,1.4,No
2018/09/22,10:50,0.294,0.184,0.299,0.285,0.276,0.146,0.091,south-southeast,1.2,No
2018/09/22,11:00,0.295,0.183,0.298,0.284,0.280,0.146,0.090,south-southeast,1.2,No
2018/09/22,11:10,0.299,0.183,0.294,0.286,0.277,0.146,0.091,southeast,1.4,No
2018/09/22,11:20,0.298,0.183,0.296,0.287,0.276,0.147,0.091,east-southeast,0.6,No
2018/09/22,11:30,0.296,0.183,0.299,0.286,0.275,0.147,0.092,south,0.6,No
2018/09/22,11:40,0.296,0.184,0.295,0.285,0.278,0.146,0.091,east,1.1,No
2018/09/22,11:50,0.299,0.185,0.295,0.289,0.279,0.147,0.091,east,1.4,Yes
2018/09/22,12:00,0.300,0.184,0.298,0.289,0.277,0.148,0.092,northeast,1.7,No
2018/09/22,12:10,0.296,0.184,0.298,0.287,0.275,0.148,0.092,north-northeast,3.0,No
2018/09/22,12:20,0.297,0.185,0.296,0.286,0.275,0.147,0.091,northeast,2.7,No
2018/09/22,12:30,0.299,0.185,0.296,0.290,0.279,0.145,0.090,northeast,2.9,No
2018/09/22,12:40,0.299,0.183,0.299,0.287,0.279,0.147,0.091,northeast,2.4,Yes
2018/09/22,12:50,0.295,0.185,0.298,0.286,0.276,0.148,0.091,northeast,3.2,No
2018/09/22,13:00,0.299,0.184,0.295,0.288,0.275,0.147,0.091,northeast,3.6,No
2018/09/22,13:10,0.298,0.184,0.299,0.289,0.280,0.147,0.091,northeast,2.9,No
2018/09/22,13:20,0.295,0.184,0.299,0.288,0.277,0.148,0.092,northeast,3.9,No
2018/09/22,13:30,0.300,0.186,0.295,0.289,0.276,0.148,0.091,northeast,4.5,No
2018/09/22,13:40,0.299,0.185,0.298,0.290,0.277,0.147,0.091,north-northeast,5.2,No
2018/09/22,13:50,0.296,0.183,0.298,0.287,0.280,0.147,0.091,north-northeast,6.3,No
2018/09/22,14:00,0.298,0.186,0.295,0.286,0.278,0.148,0.092,north-northeast,6.2,No
2018/09/22,14:10,0.300,0.186,0.297,0.290,0.275,0.148,0.091,north-northeast,5.2,No
2018/09/22,14:20,0.297,0.183,0.300,0.287,0.279,0.146,0.090,north,4.3,No
2018/09/22,14:30,0.299,0.185,0.298,0.284,0.278,0.146,0.091,north-northeast,4.7,No
2018/09/22,14:40,0.301,0.185,0.296,0.288,0.276,0.148,0.092,north,5.2,No
2018/09/22,14:50,0.297,0.185,0.298,0.291,0.275,0.147,0.090,north-northeast,6.3,No
2018/09/22,15:00,0.300,0.184,0.298,0.286,0.278,0.147,0.091,north-northeast,6.1,No
2018/09/22,15:10,0.300,0.185,0.296,0.286,0.280,0.148,0.090,north-northeast,5.5,No
2018/09/22,15:20,0.299,0.185,0.298,0.290,0.275,0.148,0.092,north,5.9,No
2018/09/22,15:30,0.297,0.183,0.298,0.288,0.276,0.147,0.091,north-northeast,5.0,No
2018/09/22,15:40,0.300,0.186,0.296,0.287,0.279,0.147,0.091,north,3.9,No
2018/09/22,15:50,0.298,0.186,0.297,0.290,0.277,0.147,0.091,north,3.5,No
2018/09/22,16:00,0.298,0.184,0.299,0.290,0.276,0.148,0.090,north,4.5,No
2018/09/22,16:10,0.301,0.185,0.296,0.287,0.279,0.146,0.091,north-northeast,3.1,No
2018/09/22,16:20,0.299,0.185,0.298,0.287,0.278,0.147,0.092,north,4.5,No
2018/09/22,16:30,0.297,0.183,0.299,0.290,0.277,0.148,0.090,north-northeast,3.9,No
2018/09/22,16:40,0.300,0.186,0.298,0.287,0.276,0.148,0.091,north-northeast,3.3,No
2018/09/22,16:50,0.297,0.186,0.299,0.288,0.280,0.147,0.092,north,3.3,No
2018/09/22,17:00,0.298,0.185,0.298,0.290,0.276,0.149,0.091,north-northeast,3.8,No
2018/09/22,17:10,0.301,0.187,0.296,0.288,0.278,0.147,0.092,north,3.9,No
2018/09/22,17:20,0.298,0.184,0.299,0.290,0.279,0.148,0.091,north,4.1,No
2018/09/22,17:30,0.299,0.185,0.299,0.289,0.276,0.149,0.091,north-northeast,3.3,No
2018/09/22,17:40,0.300,0.186,0.299,0.289,0.280,0.148,0.092,north-northeast,4.0,No
2018/09/22,17:50,0.298,0.185,0.301,0.289,0.278,0.148,0.091,north,3.3,No
2018/09/22,18:00,0.300,0.186,0.297,0.287,0.278,0.148,0.092,north-northeast,3.0,No
2018/09/22,18:10,0.299,0.184,0.300,0.290,0.279,0.147,0.092,north,3.0,No
2018/09/22,18:20,0.298,0.186,0.297,0.291,0.276,0.149,0.091,north,2.8,No
2018/09/22,18:30,0.300,0.185,0.299,0.288,0.279,0.148,0.092,north-northwest,2.2,No
2018/09/22,18:40,0.297,0.184,0.301,0.291,0.277,0.148,0.091,north-northeast,2.6,No
2018/09/22,18:50,0.302,0.185,0.298,0.287,0.278,0.148,0.092,northeast,0.8,No
2018/09/22,19:00,0.298,0.187,0.301,0.290,0.278,0.147,0.091,northeast,1.2,No
2018/09/22,19:10,0.300,0.185,0.299,0.290,0.276,0.148,0.092,northeast,0.7,No
2018/09/22,19:20,0.301,0.185,0.299,0.290,0.280,0.147,0.091,northeast,0.6,No
2018/09/22,19:30,0.298,0.185,0.299,0.289,0.278,0.148,0.091,east-northeast,1.0,No
2018/09/22,19:40,0.301,0.187,0.300,0.288,0.279,0.147,0.091,-,CALM,No
2018/09/22,19:50,0.298,0.184,0.299,0.289,0.277,0.149,0.091,-,CALM,No
2018/09/22,20:00,0.301,0.186,0.298,0.288,0.278,0.148,0.091,-,CALM,No
2018/09/22,20:10,0.300,0.185,0.299,0.289,0.278,0.149,0.092,-,CALM,No
2018/09/22,20:20,0.300,0.185,0.298,0.287,0.277,0.148,0.093,-,CALM,No
2018/09/22,20:30,0.300,0.185,0.299,0.290,0.279,0.148,0.091,north-northeast,0.9,No
2018/09/22,20:40,0.299,0.185,0.297,0.289,0.276,0.148,0.092,north-northeast,1.3,No
2018/09/22,20:50,0.300,0.185,0.301,0.291,0.279,0.148,0.091,northeast,1.3,No
2018/09/22,21:00,0.300,0.186,0.298,0.289,0.277,0.149,0.092,east-northeast,1.0,No
2018/09/22,21:10,0.302,0.186,0.300,0.288,0.280,0.148,0.091,north-northeast,1.2,No
2018/09/22,21:20,0.298,0.185,0.298,0.290,0.276,0.148,0.092,north,2.6,No
2018/09/22,21:30,0.301,0.185,0.299,0.289,0.280,0.148,0.091,north-northeast,2.6,No
2018/09/22,21:40,0.299,0.186,0.299,0.290,0.277,0.147,0.091,northeast,2.9,No
2018/09/22,21:50,0.301,0.185,0.298,0.288,0.277,0.148,0.091,northeast,1.6,No
2018/09/22,22:00,0.300,0.187,0.299,0.289,0.279,0.149,0.092,east-northeast,1.7,No
2018/09/22,22:10,0.301,0.185,0.297,0.288,0.277,0.148,0.092,north-northeast,3.0,No
2018/09/22,22:20,0.298,0.185,0.300,0.290,0.277,0.149,0.092,north,2.4,No
2018/09/22,22:30,0.299,0.185,0.299,0.289,0.277,0.148,0.091,north,2.7,No
2018/09/22,22:40,0.299,0.186,0.301,0.291,0.279,0.149,0.092,north-northeast,3.3,No
2018/09/22,22:50,0.299,0.185,0.298,0.288,0.278,0.148,0.091,north-northeast,3.6,No
2018/09/22,23:00,0.300,0.187,0.301,0.292,0.280,0.149,0.092,north-northeast,3.2,No
2018/09/22,23:10,0.299,0.185,0.297,0.289,0.277,0.149,0.091,north,1.3,No
2018/09/22,23:20,0.300,0.186,0.300,0.289,0.280,0.148,0.091,-,CALM,No
2018/09/22,23:30,0.299,0.185,0.299,0.289,0.277,0.148,0.091,north,1.4,No
2018/09/22,23:40,0.301,0.185,0.301,0.290,0.279,0.150,0.092,north,1.9,No
2018/09/22,23:50,0.299,0.187,0.299,0.288,0.277,0.148,0.092,north,2.1,No
